Regional Weather Roundup
Issued by NWS Portland, ME

Home | Current Version | Previous Version | Text Only | Print | Product List | Glossary On
Versions: 1 2 3 4 5 6 7 8 9 10 11 12 13 14 15 16 17 18 19 20 21 22 23 24 25 26 27 28 29 30 31 32 33 34 35 36 37 38 39 40 41 42 43 44 45 46 47 48 49 50
000
ASUS41 KGYX 231810
RWRGYX
WEATHER ROUNDUP FOR MAINE AND NEW HAMPSHIRE
NATIONAL WEATHER SERVICE GRAY ME
200 PM EDT FRI JUN 23 2017

MEZ002-005-006-010-012-015-018-020-021-024-026-027-029-231900-
MAINE

CITY           SKY/WX    TMP DP  RH WIND       PRES   REMARKS
PORTLAND       PTSUNNY   70  61  73 NE6       29.72F
6HR MIN TEMP:  61; 6HR MAX TEMP:  70;

SANFORD        CLOUDY    76  64  66 SE6       29.71F
BAR HARBOR     CLOUDY    66  61  84 S8        29.76F
WISCASSET      PTSUNNY   68  63  84 S5        29.74F
6HR MIN TEMP:  61; 6HR MAX TEMP:  69; 6HR PCP: TRACE;

ROCKLAND       CLOUDY    60  59  96 S6        29.75F
FRYEBURG       CLOUDY    77  69  76 VRB5      29.70F
6HR MIN TEMP:  61; 6HR MAX TEMP:  75; 6HR PCP:  0.09;

LEWISTONAUBURN PTSUNNY   74  66  76 SE8       29.71F
AUGUSTA        CLOUDY    71  64  78 SE7       29.73F
6HR MIN TEMP:  60; 6HR MAX TEMP:  71; 6HR PCP:  0.01;

WATERVILLE     CLOUDY    68  65  90 VRB6      29.70F
BANGOR         CLOUDY    69  62  78 S8        29.73F
6HR MIN TEMP:  62; 6HR MAX TEMP:  69; 6HR PCP: TRACE;

GREENVILLE       N/A     61  61 100 VRB5      29.71F
6HR MIN TEMP:  57; 6HR MAX TEMP:  62; 6HR PCP:  0.03;

MILLINOCKET    LGT RAIN  67  61  81 VRB5      29.73F
6HR MIN TEMP:  58; 6HR MAX TEMP:  68; 6HR PCP: TRACE;

HOULTON        CLOUDY    65  60  84 SE7       29.72F
6HR MIN TEMP:  60; 6HR MAX TEMP:  69; 6HR PCP: TRACE;

PRESQUE ISLE   CLOUDY    67  57  70 S13       29.72F
6HR MIN TEMP:  60; 6HR MAX TEMP:  68;

FRENCHVILLE    CLOUDY    64  55  72 SE13      29.69F
6HR MIN TEMP:  56; 6HR MAX TEMP:  64; 6HR PCP: TRACE;

CARIBOU        CLOUDY    67  55  65 S12G20    29.70F
6HR MIN TEMP:  61; 6HR MAX TEMP:  68;

$$

NHZ002-005-008-009-011-012-014-231900-
NEW HAMPSHIRE

CITY           SKY/WX    TMP DP  RH WIND       PRES   REMARKS
PORTSMOUTH     PTSUNNY   79  68  69 E7        29.67F
ROCHESTER      CLOUDY    78  65  63 VRB6      29.69F
6HR MIN TEMP:  68; 6HR MAX TEMP:  80;

NASHUA         CLOUDY    89  70  53 VRB5      29.66F HX  94
MANCHESTER     PTSUNNY   88  67  49 S13G20    29.65F HX  91
6HR MIN TEMP:  70; 6HR MAX TEMP:  89; 6HR PCP: TRACE;

CONCORD        MOSUNNY   83  70  64 SE7       29.68F
6HR MIN TEMP:  69; 6HR MAX TEMP:  83;

LACONIA        SUNNY    N/A N/A N/A N6        29.69F
PLYMOUTH       FAIR      78  66  66 E7        29.68F
BERLIN         PTSUNNY   78  65  63 S7        29.68F
6HR MIN TEMP:  58; 6HR MAX TEMP:  78; 6HR PCP:  0.06;

WHITEFIELD     CLOUDY    80  66  62 VRB5      29.67F
6HR MIN TEMP:  59; 6HR MAX TEMP:  81; 6HR PCP:  0.23;

JAFFREY        SUNNY     87  65  47 S14G22    29.71F
6HR MIN TEMP:  66; 6HR MAX TEMP:  87; 6HR PCP: TRACE;

KEENE          MOSUNNY   88  68  51 S15G23    29.66F HX  91
LEBANON        MOSUNNY   87  68  52 S15G21    29.64F HX  90
6HR MIN TEMP:  64; 6HR MAX TEMP:  88;

MT WASHINGTON  FOG       54  54 100 SW46G53     N/A  VSB 0
6HR MIN TEMP:  50; 6HR MAX TEMP:  55; 6HR PCP:  0.21;

$$

VTZ005-007-008-231900-
VERMONT

CITY           SKY/WX    TMP DP  RH WIND       PRES   REMARKS
ST JOHNSBURY     N/A     79  69  71 MISG      29.63F
MONTPELIER     MOSUNNY   80  70  71 S9G23     29.69F
BURLINGTON     CLOUDY    80  70  71 SW6       29.60F
$$

MAZ007-012-024-CTZ003-RIZ002-NYZ038-NYZ072-231900-
SOUTHERN NEW ENGLAND AND NY

CITY           SKY/WX    TMP DP  RH WIND       PRES   REMARKS
BOSTON         CLOUDY    88  71  57 S17G25    29.68F HX  94
WORCESTER      MOSUNNY   80  68  66 S12       29.72F
NANTUCKET      CLOUDY    69  66  90 S14       29.80F
PROVIDENCE     PTSUNNY   84  71  65 S21       29.73F
HARTFORD       PTSUNNY   89  67  47 S16       29.67F HX  92
ALBANY         PTSUNNY   86  67  52 S14G23    29.61F
NEW YORK CITY  CLOUDY    81  72  74 SW18G30   29.70F
$$

ANZ081-ANZ082-ANZ150-NHZ014-MEZ023>029-231900-
COASTAL MARINE OBSERVATIONS

STATION/POSITION TIME  TEMP    WIND        PRES    WAVE
                       AIR SEA DIR/SP/G            HT/PER
                 (UTC) (F)     (DEG/KT/KT) (MB)    (FT/S)
MATINICUS ROCK   1700   56     170/ 15/ 16 1007.4F
ISLE OF SHOALS   1700   65     140/ 12/ 13 1006.2F
JEFFREYS LEDGE   1706      60                N/A     2/ 4
CASHES LEDGE BUO 1650   63 60              1008.1    2/ 4
GEORGES BANK BUO 1650   57 55              1012.8    3/ 7
$$

.............KEY..............
   WCI - WIND CHILL
   TC  - TEMPERATURE IN CELSIUS
   VSB - VISIBILITY IN MILES
   HX  - HEAT INDEX
   FAIR- INDICATES FEW OR NO CLOUDS BELOW 12,000 FT, WITH NO
         SIGNIFICANT WEATHER AND/OR OBSTRUCTIONS TO VISIBILITY.






USA.gov is the U.S. government's official web portal to all federal, state and local government web resources and services.